map of AOI home
AOI - Airport
Location
City:  Ancona, Marche, Italy
Name:Falconara
ICAO:LIPY
IATA:AOI

Details
Type:Airport (Aerodrome, Airfield)
Use:Public/Civil
Latitude:4336'59"N (43.616342)
Longitude:1321'44"E (13.362319)
Datum:WGS 1984
Elevation:49 ft (15 m)
Variation:3.41E (WMM2015 magnetic declination)
0.11 annual change
Runways:1
Longest:9718 × 148 ft (2962 × 45 m), paved

Time
Time Zone:UTC+1 (DST+2)
Local Time:

Weather
METAR:LIPY 191750Z 29006KT 9999 DZ FEW010 SCT030 BKN050 06/05 Q1015
TAF:LIPY 191700Z 1918/2018 32010KT 8000 SCT015 BKN030
TEMPO 1912/1916 SHRA

Related Locations
Nearby:
Farthest:CHT: 11949 mi / 19230 km
Waitangi [Tuuta], CIT, NZ

Find:

   beyond  
but within

Other Information
Maps:
NOTAMs:
Links:
Sources:

  
  • flag of Italy
  • flag of Marche
  

Sectional Chart

Flight Planning
at skyvector.com

Satellite Image

Google Maps Satellite view

 

Copyright © 2004-2019 Karl L. Swartz. All rights reserved.
The Great Circle Mapper name and logo are trademarks of the Great Circle Mapper.
All other trademarks mentioned herein belong to their respective owners.
Please see credits for attibutions and further copyright information.

  Follow gcmap on Facebook Follow gcmap on Twitter Follow gcmap on Google+ GCmap on LinkedIn

hCard Microformat

Geo Microformat